◎2007 FV42の軌道と予報位置    [From BSGC Web News No. 107]



JSGA Web News No. 107                                             2007 Apr. 17



アモール型特異小惑星 2007 FV42の接近

 最近では,明るいNEOがほとんど発見されたせいか,報告されるNEOの発見光度は

19等級以下と大変暗い.しかし,久しぶりに明るくなるアモール型の小惑星 2007

FV42が,カテリナ・スカイサーベイで,3月20日に発見された.この NEOは,3月

25日にサーベイ・フレーム上に確認されたものの第3夜目の確認が4月16日になっ

たため,公表が遅れた.

 小惑星の発見光度は,19等級であるが,6月下旬には,地球に 0.13 AUまで近づ

き,14等級まで明るくなるだろう.なお,小惑星の直径は,約1.0-Kmと推測される.



2007 FV42

Epoch 2007 Mar. 21.0 TT = JDT 2454180.5                 Nakano

M 328.09431              (2000.0)            P               Q

n   0.30683065     Peri.  181.53896     +0.21845843     +0.96133835

a   2.1770591      Node   101.10230     -0.89348645     +0.26612301

e   0.4733142      Incl.    9.83674     -0.39237466     -0.07076104

P   3.21           H   17.7           G   0.15           U   *

Residuals in seconds of arc 

070320 703  0.1-  0.2-    070320 703  0.5+  0.5+    070325 G96  0.1-  0.2+  

070320 703  0.1-  0.6-    070320 703  0.7+  1.4-    070325 G96  0.2+  0.1-  

070320 703  0.2-  1.5+    070320 703  0.0   0.0     070416 703  0.1+  0.2-  

070320 703  0.1-  0.8+    070320 703  0.0   0.3-    070416 703  0.1+  0.0   

070320 703  1.0+  0.7+    070320 703  0.7-  0.0     070416 703  0.1+  0.0   

070320 703  0.9-  0.5+    070320 703  0.1-  0.7+    070416 703  0.4-  0.3+  

070320 703  0.1-  1.8-    070325 G96  0.2-  0.0                             

070320 703  0.1+  0.4-    070325 G96  0.0   0.1-                            

 

Date/  0h TT  R.A.(2000) Decl.     Delta   r     Daily motion  Mag.  Moon Age

                h  m       。  ,                      ,  / PA 。  V       。

2007 Apr. 20  16 32.39  +04 19.8   0.477  1.390    25.1 /  72  18.1  149  .09

          25  16 40.38  +04 59.1   0.437  1.363    25.1 /  73  17.9  111  .57

          30  16 48.45  +05 34.7   0.399  1.336    25.3 /  76  17.6   63  .95

     May   5  16 56.70  +06 04.1   0.364  1.311    25.8 /  81  17.4   34  .94

          10  17 05.23  +06 24.5   0.331  1.287    26.7 /  87  17.1   67  .52

          15  17 14.18  +06 32.0   0.300  1.264    28.6 /  94  16.9  123  .05

          20  17 23.74  +06 21.7   0.272  1.243    31.9 / 102  16.6  140  .14

          25  17 34.21  +05 48.0   0.245  1.223    37.2 / 110  16.3   96  .61

          30  17 45.89  +04 44.4   0.221  1.206    44.5 / 117  16.1   51  .96

     June  4  17 59.15  +03 03.4   0.200  1.190    54.2 / 123  15.8   35  .91

           9  18 14.34  +00 36.8   0.181  1.177    65.9 / 127  15.5   81  .44

          14  18 31.81  -02 43.4   0.164  1.166    79.2 / 131  15.2  140  .02

          19  18 51.90  -07 01.7   0.151  1.157    92.0 / 133  14.9  143  .18

          24  19 14.77  -12 13.7   0.141  1.151   101.4 / 134  14.7   91  .64

          29  19 40.23  -18 01.9   0.136  1.147   104.3 / 134  14.5   37  .97

     July  4  20 07.53  -23 57.1   0.136  1.147    99.5 / 133  14.5   25  .87

           9  20 35.41  -29 26.4   0.139  1.149    88.4 / 131  14.7   90  .35

          14  21 02.32  -34 05.2   0.147  1.153    73.9 / 128  14.9  154  .00

          19  21 26.87  -37 43.2   0.158  1.160    58.8 / 124  15.1  137  .21

          24  21 48.12  -40 22.2   0.172  1.170    45.0 / 120  15.4   84  .66

          29  22 05.63  -42 10.8   0.189  1.182    33.3 / 115  15.6   34  .99

     Aug.  3  22 19.40  -43 19.1   0.207  1.196    23.6 / 109  15.9   52  .81

           8  22 29.73  -43 55.6   0.227  1.212    16.1 /  98  16.1  111  .27



日本スペースガード協会            (c) Copyright JSGA 2007           中野 主一

         **** Don't distribute anyone except personal use only ****

                (C) Copyright 2007 OAA/ComputingSection

write mail from CFAD0::NAKANO on 2007-04-17 02:53:55(JST).

 

戻ります。